| time (UTC) | temp F | wind direction | speed MPH | gust MPH | rain 1hr in | rain 24hr in | rain mn in | humidity % | barometer mb |
| 20260906220537 | 78 | 45 | 1.0 | 6.0 | 0.01 | 0.03 | 0.02 | 80 | 1014.2 |
| 20260906215517 | 79 | 23 | 1.0 | 5.0 | 0.01 | 0.03 | 0.02 | 80 | 1014.3 |
| 20260906214537 | 80 | 45 | 2.0 | 8.0 | 0.01 | 0.03 | 0.02 | 78 | 1014.1 |
| 20260906213557 | 81 | 0.0 | 4.0 | 0.01 | 0.03 | 0.02 | 77 | 1014.2 | |
| 20260906212537 | 82 | 0.0 | 3.0 | 0.01 | 0.03 | 0.02 | 77 | 1014.3 | |
| 20260906211537 | 82 | 0.0 | 0.0 | 0.00 | 0.02 | 0.01 | 77 | 1014.1 | |
| 20260906210536 | 82 | 0.0 | 2.0 | 0.00 | 0.02 | 0.01 | 77 | 1014.0 | |
| 20260906205516 | 83 | 0.0 | 0.0 | 0.00 | 0.02 | 0.01 | 78 | 1013.9 | |
| 20260906203516 | 83 | 0.0 | 2.0 | 0.00 | 0.02 | 0.01 | 75 | 1013.6 | |
| 20260906202536 | 83 | 45 | 1.0 | 4.0 | 0.01 | 0.02 | 0.01 | 73 | 1013.7 |
| 20260906201556 | 83 | 23 | 1.0 | 4.0 | 0.01 | 0.02 | 0.01 | 75 | 1013.7 |
| 20260906200516 | 83 | 0.0 | 3.0 | 0.01 | 0.02 | 0.01 | 74 | 1014.0 | |
| 20260906195516 | 84 | 23 | 2.0 | 4.0 | 0.01 | 0.02 | 0.01 | 74 | 1014.0 |
| 20260906194536 | 84 | 45 | 1.0 | 5.0 | 0.01 | 0.02 | 0.01 | 74 | 1014.1 |
| 20260906193516 | 84 | 45 | 1.0 | 5.0 | 0.01 | 0.03 | 0.01 | 73 | 1014.1 |
| 20260906192516 | 84 | 0.0 | 1.0 | 0.00 | 0.02 | 0.00 | 74 | 1014.4 | |
| 20260906191516 | 83 | 0.0 | 1.0 | 0.00 | 0.02 | 0.00 | 76 | 1014.5 | |
| 20260906190536 | 84 | 45 | 2.0 | 9.0 | 0.00 | 0.02 | 0.00 | 74 | 1014.7 |
| 20260906185557 | 84 | 23 | 2.0 | 7.0 | 0.00 | 0.02 | 0.00 | 74 | 1014.7 |
| 20260906184556 | 83 | 45 | 1.0 | 5.0 | 0.00 | 0.02 | 0.00 | 79 | 1014.8 |
| 20260906183616 | 81 | 45 | 2.0 | 5.0 | 0.00 | 0.02 | 0.00 | 78 | 1015.0 |
| 20260906182516 | 82 | 45 | 1.0 | 4.0 | 0.00 | 0.02 | 0.00 | 78 | 1015.0 |
| 20260906181516 | 82 | 23 | 1.0 | 5.0 | 0.00 | 0.02 | 0.00 | 77 | 1014.9 |
| 20260906180536 | 82 | 23 | 2.0 | 7.0 | 0.00 | 0.02 | 0.00 | 78 | 1015.0 |
| 20260906175516 | 81 | 45 | 1.0 | 6.0 | 0.00 | 0.02 | 0.00 | 82 | 1015.3 |
| 20260906174516 | 80 | 0.0 | 4.0 | 0.00 | 0.02 | 0.00 | 84 | 1015.2 | |
| 20260906173516 | 79 | 0.0 | 1.0 | 0.00 | 0.02 | 0.00 | 85 | 1015.2 | |
| 20260906171516 | 78 | 0.0 | 2.0 | 0.00 | 0.02 | 0.00 | 84 | 1015.4 | |
| 20260906170536 | 78 | 0.0 | 1.0 | 0.00 | 0.03 | 0.00 | 85 | 1015.5 | |
| 20260906165516 | 78 | 0.0 | 1.0 | 0.00 | 0.03 | 0.00 | 85 | 1015.6 | |
| 20260906164536 | 78 | 0.0 | 1.0 | 0.00 | 0.03 | 0.00 | 85 | 1015.7 | |
| 20260906163536 | 78 | 0.0 | 3.0 | 0.00 | 0.03 | 0.00 | 83 | 1015.6 | |
| 20260906162536 | 79 | 23 | 1.0 | 5.0 | 0.00 | 0.03 | 0.00 | 84 | 1015.6 |
| 20260906161516 | 79 | 45 | 1.0 | 3.0 | 0.00 | 0.03 | 0.00 | 82 | 1015.7 |
| 20260906160536 | 80 | 0.0 | 2.0 | 0.00 | 0.03 | 0.00 | 82 | 1015.7 | |
| 20260906155516 | 80 | 0.0 | 1.0 | 0.00 | 0.03 | 0.00 | 83 | 1015.7 | |
| 20260906154536 | 80 | 45 | 1.0 | 4.0 | 0.00 | 0.03 | 0.00 | 83 | 1015.6 |
| 20260906153637 | 79 | 45 | 1.0 | 6.0 | 0.00 | 0.03 | 0.00 | 83 | 1015.6 |
| 20260906152516 | 79 | 23 | 1.0 | 6.0 | 0.00 | 0.03 | 0.00 | 84 | 1015.5 |
| 20260906151657 | 79 | 45 | 1.0 | 6.0 | 0.00 | 0.03 | 0.00 | 86 | 1015.6 |
| 20260906150536 | 78 | 0.0 | 3.0 | 0.00 | 0.04 | 0.00 | 88 | 1015.7 | |
| 20260906145536 | 77 | 0.0 | 1.0 | 0.00 | 0.04 | 0.00 | 90 | 1015.7 | |
| 20260906144637 | 77 | 0.0 | 1.0 | 0.00 | 0.04 | 0.00 | 89 | 1015.8 | |
| 20260906143516 | 77 | 0.0 | 1.0 | 0.00 | 0.04 | 0.00 | 89 | 1015.7 | |
| 20260906142516 | 77 | 0.0 | 4.0 | 0.00 | 0.04 | 0.00 | 88 | 1015.4 | |
| 20260906141516 | 77 | 45 | 1.0 | 4.0 | 0.00 | 0.04 | 0.00 | 87 | 1015.4 |
| 20260906140556 | 77 | 0.0 | 1.0 | 0.00 | 0.04 | 0.00 | 89 | 1015.3 | |
| 20260906135556 | 76 | 23 | 1.0 | 8.0 | 0.00 | 0.04 | 0.00 | 89 | 1015.1 |
| 20260906134516 | 76 | 23 | 1.0 | 5.0 | 0.00 | 0.04 | 0.00 | 88 | 1015.1 |
| 20260906132516 | 76 | 23 | 1.0 | 6.0 | 0.00 | 0.04 | 0.00 | 91 | 1015.3 |
| 20260906131516 | 75 | 23 | 1.0 | 7.0 | 0.00 | 0.04 | 0.00 | 92 | 1015.1 |
| 20260906130636 | 74 | 23 | 1.0 | 3.0 | 0.00 | 0.04 | 0.00 | 93 | 1014.9 |
| 20260906125516 | 74 | 0.0 | 3.0 | 0.00 | 0.04 | 0.00 | 93 | 1014.9 | |
| 20260906124516 | 74 | 23 | 1.0 | 5.0 | 0.00 | 0.04 | 0.00 | 93 | 1014.9 |
| 20260906123516 | 74 | 45 | 1.0 | 6.0 | 0.00 | 0.04 | 0.00 | 94 | 1015.1 |
| 20260906122536 | 73 | 0.0 | 3.0 | 0.00 | 0.04 | 0.00 | 96 | 1015.1 | |
| 20260906121616 | 73 | 23 | 1.0 | 5.0 | 0.00 | 0.04 | 0.00 | 98 | 1014.8 |
| 20260906120515 | 72 | 0.0 | 2.0 | 0.00 | 0.05 | 0.00 | 99 | 1014.8 | |
| 20260906115616 | 72 | 0.0 | 0.0 | 0.00 | 0.05 | 0.00 | 99 | 1014.7 | |
| 20260906114636 | 72 | 0.0 | 2.0 | 0.00 | 0.05 | 0.00 | 99 | 1014.7 | |
| 20260906113516 | 72 | 0.0 | 0.0 | 0.00 | 0.05 | 0.00 | 99 | 1014.4 | |
| 20260906112515 | 72 | 0.0 | 0.0 | 0.00 | 0.05 | 0.00 | 99 | 1014.6 | |
| 20260906111515 | 72 | 0.0 | 0.0 | 0.00 | 0.05 | 0.00 | 99 | 1014.6 | |
| 20260906110516 | 72 | 0.0 | 1.0 | 0.00 | 0.05 | 0.00 | 99 | 1014.5 | |
| 20260906105636 | 72 | 0.0 | 0.0 | 0.00 | 0.05 | 0.00 | 99 | 1014.3 | |
| 20260906104515 | 72 | 0.0 | 1.0 | 0.00 | 0.05 | 0.00 | 99 | 1014.3 | |
| 20260906103515 | 72 | 0.0 | 1.0 | 0.00 | 0.05 | 0.00 | 100 | 1014.3 | |
| 20260906102535 | 72 | 0.0 | 1.0 | 0.00 | 0.05 | 0.00 | 100 | 1014.1 | |
| 20260906101515 | 72 | 0.0 | 1.0 | 0.00 | 0.05 | 0.00 | 100 | 1014.1 | |
| 20260906100515 | 72 | 0.0 | 1.0 | 0.00 | 0.05 | 0.00 | 100 | 1013.7 | |
| 20260906095515 | 72 | 0.0 | 1.0 | 0.00 | 0.05 | 0.00 | 100 | 1013.7 | |
| 20260906094636 | 71 | 0.0 | 1.0 | 0.00 | 0.05 | 0.00 | 100 | 1013.5 | |
| 20260906093515 | 71 | 0.0 | 1.0 | 0.00 | 0.05 | 0.00 | 100 | 1013.5 | |
| 20260906092515 | 71 | 23 | 1.0 | 4.0 | 0.00 | 0.05 | 0.00 | 100 | 1013.5 |
| 20260906091657 | 71 | 45 | 1.0 | 5.0 | 0.00 | 0.05 | 0.00 | 100 | 1013.3 |
| 20260906090615 | 71 | 0.0 | 2.0 | 0.00 | 0.05 | 0.00 | 100 | 1013.2 | |
| 20260906085535 | 70 | 0.0 | 0.0 | 0.00 | 0.05 | 0.00 | 99 | 1012.9 | |
| 20260906084615 | 69 | 0.0 | 0.0 | 0.00 | 0.05 | 0.00 | 99 | 1012.8 | |
| 20260906083555 | 69 | 0.0 | 0.0 | 0.00 | 0.05 | 0.00 | 99 | 1012.7 | |
| 20260906082535 | 69 | 0.0 | 0.0 | 0.00 | 0.06 | 0.00 | 99 | 1012.6 | |
| 20260906081535 | 69 | 0.0 | 0.0 | 0.00 | 0.06 | 0.00 | 99 | 1012.6 | |
| 20260906080535 | 69 | 0.0 | 1.0 | 0.00 | 0.06 | 0.00 | 99 | 1012.4 | |
| 20260906075515 | 68 | 0.0 | 0.0 | 0.00 | 0.06 | 0.00 | 99 | 1012.3 | |
| 20260906074515 | 68 | 0.0 | 0.0 | 0.00 | 0.06 | 0.00 | 99 | 1012.2 | |
| 20260906073517 | 68 | 0.0 | 0.0 | 0.00 | 0.06 | 0.00 | 99 | 1012.2 | |
| 20260906072537 | 68 | 0.0 | 0.0 | 0.00 | 0.06 | 0.00 | 99 | 1012.3 | |
| 20260906071517 | 68 | 0.0 | 0.0 | 0.00 | 0.06 | 0.00 | 99 | 1012.4 | |
| 20260906070517 | 69 | 0.0 | 0.0 | 0.00 | 0.06 | 0.00 | 99 | 1012.6 | |
| 20260906065517 | 69 | 0.0 | 0.0 | 0.00 | 0.06 | 0.00 | 99 | 1013.0 | |
| 20260906064517 | 69 | 0.0 | 0.0 | 0.00 | 0.06 | 0.00 | 99 | 1013.1 | |
| 20260906063537 | 69 | 0.0 | 0.0 | 0.00 | 0.06 | 0.00 | 99 | 1013.0 | |
| 20260906062557 | 69 | 0.0 | 0.0 | 0.00 | 0.06 | 0.00 | 98 | 1013.3 | |
| 20260906061517 | 69 | 0.0 | 0.0 | 0.00 | 0.06 | 0.00 | 98 | 1013.4 | |
| 20260906060537 | 69 | 0.0 | 1.0 | 0.00 | 0.06 | 0.00 | 98 | 1013.4 | |
| 20260906055537 | 69 | 0.0 | 0.0 | 0.00 | 0.06 | 0.00 | 98 | 1013.5 | |
| 20260906054517 | 69 | 0.0 | 0.0 | 0.00 | 0.06 | 0.00 | 99 | 1013.5 | |
| 20260906053617 | 69 | 0.0 | 1.0 | 0.00 | 0.06 | 0.00 | 98 | 1013.6 | |
| 20260906052537 | 70 | 0.0 | 0.0 | 0.00 | 0.06 | 0.00 | 98 | 1013.5 | |
| 20260906051517 | 70 | 0.0 | 0.0 | 0.00 | 0.06 | 0.00 | 98 | 1013.7 | |
| 20260906050517 | 70 | 0.0 | 0.0 | 0.00 | 0.06 | 0.00 | 98 | 1013.6 | |
| 20260906045517 | 70 | 0.0 | 0.0 | 0.00 | 0.06 | 0.00 | 98 | 1013.6 | |
| 20260906044517 | 70 | 0.0 | 0.0 | 0.00 | 0.06 | 0.00 | 98 | 1013.8 | |
| 20260906043537 | 70 | 0.0 | 1.0 | 0.00 | 0.06 | 0.00 | 98 | 1013.9 | |
| 20260906042517 | 70 | 0.0 | 0.0 | 0.00 | 0.06 | 0.00 | 98 | 1014.0 | |
| 20260906041517 | 70 | 0.0 | 0.0 | 0.00 | 0.06 | 0.00 | 98 | 1014.0 | |
| 20260906040537 | 71 | 0.0 | 0.0 | 0.00 | 0.06 | 0.00 | 98 | 1014.0 | |
| 20260906035515 | 71 | 0.0 | 0.0 | 0.00 | 0.06 | 0.06 | 98 | 1014.0 | |
| 20260906034555 | 71 | 0.0 | 0.0 | 0.00 | 0.06 | 0.06 | 98 | 1014.1 | |
| 20260906033515 | 70 | 0.0 | 1.0 | 0.00 | 0.06 | 0.06 | 98 | 1014.0 | |
| 20260906032515 | 70 | 0.0 | 0.0 | 0.00 | 0.06 | 0.06 | 98 | 1013.8 | |
| 20260906031555 | 70 | 0.0 | 0.0 | 0.00 | 0.06 | 0.06 | 98 | 1013.7 | |
| 20260906030555 | 70 | 0.0 | 0.0 | 0.00 | 0.06 | 0.06 | 98 | 1013.6 | |
| 20260906025557 | 71 | 0.0 | 0.0 | 0.00 | 0.06 | 0.06 | 97 | 1013.4 | |
| 20260906024517 | 70 | 0.0 | 0.0 | 0.00 | 0.06 | 0.06 | 98 | 1013.4 | |
| 20260906023517 | 70 | 0.0 | 0.0 | 0.00 | 0.06 | 0.06 | 97 | 1013.3 | |
| 20260906022557 | 70 | 0.0 | 0.0 | 0.00 | 0.06 | 0.06 | 97 | 1013.2 | |
| 20260906021537 | 70 | 0.0 | 0.0 | 0.00 | 0.06 | 0.06 | 97 | 1013.1 | |
| 20260906020537 | 71 | 0.0 | 0.0 | 0.00 | 0.06 | 0.06 | 97 | 1013.2 | |
| 20260906015537 | 71 | 0.0 | 0.0 | 0.00 | 0.06 | 0.06 | 96 | 1013.1 | |
| 20260906014537 | 71 | 0.0 | 0.0 | 0.00 | 0.06 | 0.06 | 96 | 1013.1 | |
| 20260906013537 | 71 | 0.0 | 0.0 | 0.00 | 0.06 | 0.06 | 96 | 1013.1 | |
| 20260906012517 | 71 | 0.0 | 0.0 | 0.00 | 0.06 | 0.06 | 96 | 1012.7 | |
| 20260906010517 | 72 | 0.0 | 0.0 | 0.00 | 0.06 | 0.06 | 95 | 1012.8 | |
| 20260906005517 | 72 | 0.0 | 0.0 | 0.00 | 0.06 | 0.06 | 94 | 1012.7 | |
| 20260906004517 | 72 | 0.0 | 0.0 | 0.00 | 0.06 | 0.06 | 94 | 1012.8 | |
| 20260906003517 | 73 | 0.0 | 0.0 | 0.00 | 0.06 | 0.06 | 93 | 1012.6 | |
| 20260906002517 | 73 | 0.0 | 0.0 | 0.00 | 0.06 | 0.06 | 93 | 1012.6 | |
| 20260906001537 | 74 | 0.0 | 0.0 | 0.00 | 0.06 | 0.06 | 91 | 1012.5 | |
| 20260906000557 | 75 | 0.0 | 0.0 | 0.01 | 0.06 | 0.06 | 91 | 1012.4 | |
| 20260905235517 | 75 | 0.0 | 0.0 | 0.01 | 0.06 | 0.06 | 90 | 1012.4 | |
| 20260905234517 | 76 | 0.0 | 0.0 | 0.01 | 0.06 | 0.06 | 89 | 1012.1 | |
| 20260905233517 | 77 | 0.0 | 0.0 | 0.01 | 0.06 | 0.06 | 87 | 1012.1 | |
| 20260905232537 | 78 | 0.0 | 0.0 | 0.01 | 0.06 | 0.06 | 84 | 1012.1 | |
| 20260905231517 | 79 | 0.0 | 0.0 | 0.01 | 0.06 | 0.06 | 82 | 1012.0 | |
| 20260905230537 | 80 | 0.0 | 0.0 | 0.00 | 0.05 | 0.05 | 80 | 1011.9 | |
| 20260905225517 | 81 | 0.0 | 0.0 | 0.00 | 0.05 | 0.05 | 81 | 1012.1 | |
| 20260905224517 | 81 | 0.0 | 0.0 | 0.00 | 0.05 | 0.05 | 81 | 1012.2 | |
| 20260905223517 | 81 | 0.0 | 0.0 | 0.00 | 0.05 | 0.05 | 83 | 1012.2 | |
| 20260905222537 | 80 | 0.0 | 1.0 | 0.00 | 0.05 | 0.05 | 84 | 1012.2 | |
| 20260905221516 | 80 | 0.0 | 2.0 | 0.00 | 0.05 | 0.05 | 83 | 1012.4 |